Find Starlink 33853

NORAD ID: 63684 Int'l Des: 2025-085 Owner: SPXS Country: US Constellation: starlink operational
LEOCIRCULAR

リアルタイム位置

3D地球を読み込み中...

Starlink 33853について

説明を読み込み中...

次回通過

Passes for default location (London). Set your location on the main map for personalized predictions.

高度履歴

Loading altitude history...

軌道要素

1 63684U 25085W 26126.22914270 .00021110 00000-0 77321-3 0 9999
2 63684 43.0043 65.6314 0001432 261.2268 98.8422 15.27633032 57675
Epoch: May 6, 2026 • Age: 17 hours

現在のステータス

高度 494.4 km
速度 7.62 km/s
衛星直下点 -41.13°S, 111.05°E
打ち上げ日 Apr 28, 2025
運用期間 1 years
タイプ internet

技術仕様

分類 Payload
質量 575.00 kg
乾燥質量 530.00 kg
総質量 575.00 kg
長さ 0.30 m
直径 4.10 m
スパン 29.00 m
形状 Box + pan
製造者 SPXS
バスタイプ Starlink V2MO
フェーズステータス In Orbit
所有者/国 SPXS/US

Most Searched